Lid_Strength_Index
0 1 2 4 9 10 12 11 8 9 8 6 6 8 8 8 8 10 4 1 1 1 0 -0 -1 -2 -2 -2 -2 -2 -2 -2 -2 -2 -2 -2 -2 -2 -2 -2 -2 -2 -1 -1 -1 -1 -1 -1 -1
3 3 3 5 12 15 14 10 10 9 6 5 6 7 7 7 4 4 3 1 0 0 0 -0 -1 -1 -2 -2 -2 -2 -2 -2 -2 -2 -2 -2 -2 -2 -2 -2 -2 -2 -1 -1 -1 -1 -1 -1 -1
2 4 7 9 11 13 13 9 8 6 5 6 7 5 6 6 3 3 2 1 0 0 0 0 -1 -1 -1 -2 -2 -2 -2 -2 -2 -2 -2 -2 -2 -2 -2 -2 -2 -2 -1 -1 -1 -1 -1 -1 -1
3 5 7 11 12 10 9 8 7 7 5 5 5 6 6 3 3 2 1 1 1 0 -0 -1 -1 -1 -1 -1 -1 -1 -2 -2 -2 -2 -2 -2 -2 -2 -2 -2 -1 -1 -1 -1 -1 -1 -1 -1 -1
5 7 11 12 11 9 7 6 6 7 6 6 5 7 6 3 1 1 1 1 1 1 0 -0 -1 -1 -1 -1 -1 -1 -1 -1 -1 -2 -2 -2 -2 -2 -1 -1 -1 -1 -1 -1 -1 -1 -1 -1 -2
8 8 12 13 10 8 7 7 7 6 6 6 7 7 7 3 2 2 1 1 0 1 0 0 -1 -1 -1 -1 -1 -1 -1 -1 -1 -1 -2 -2 -2 -1 -1 -1 -1 -1 -1 -1 -1 -1 -2 -1 -1
8 10 12 11 10 9 8 6 7 7 6 6 6 7 5 5 3 1 1 1 1 0 0 0 0 -0 -1 -1 -1 -1 -1 -1 -1 -1 -1 -1 -1 -1 -1 -1 -1 -1 -1 -1 -1 -1 -2 -1 -1
7 9 12 11 10 10 7 7 7 7 7 4 4 7 8 5 3 3 2 2 1 1 0 0 0 0 0 -0 -1 -1 -1 -1 -1 -1 -1 -1 -1 -1 -1 -1 -1 -1 -1 -1 -1 -1 -2 -2 -1
5 11 13 11 10 9 7 8 6 5 6 5 5 5 4 3 3 4 5 5 4 2 1 1 0 0 0 0 -0 -1 -1 -1 -1 -1 -1 -1 0 0 -0 -1 -1 -2 -1 -1 -2 -1 -2 -1 -1
8 11 11 8 8 9 8 8 7 6 6 6 5 4 3 3 4 4 5 5 4 2 2 1 1 1 0 0 0 -0 -0 -0 -0 -0 -0 0 0 1 -0 -1 -1 -1 -1 -1 -1 -1 -1 -1 1
8 10 8 7 7 7 8 7 6 7 7 6 6 5 4 4 5 5 5 5 5 2 2 1 1 0 1 0 0 0 -0 0 0 -0 0 0 -0 0 0 0 0 0 -1 0 -0 -0 0 0 1
9 7 7 6 6 7 8 7 7 6 6 4 4 4 4 5 5 5 5 5 5 5 2 1 1 1 1 0 0 0 0 0 0 -0 0 0 0 0 0 1 2 1 1 1 1 1 0 1 1
9 8 6 6 6 6 6 7 7 6 4 4 4 4 5 5 5 5 4 5 5 5 6 1 1 1 1 1 1 0 0 0 0 0 0 -0 0 1 1 2 3 2 2 2 1 1 1 1 1
9 8 7 7 7 6 7 6 6 5 4 5 5 6 6 6 5 5 5 5 5 5 5 4 1 1 1 1 1 1 0 0 0 0 0 0 0 0 2 2 2 2 2 1 2 2 2 2 1
9 11 9 9 9 9 7 9 8 5 5 5 5 5 5 5 5 5 4 4 5 5 4 5 1 1 1 1 1 1 1 1 1 1 0 0 1 1 2 2 2 2 2 1 1 2 1 2 1
11 12 13 10 9 8 8 12 7 6 6 6 6 5 5 4 4 4 4 4 4 4 4 4 1 1 2 2 1 1 1 1 1 1 1 1 1 2 2 2 2 2 2 2 2 2 3 2 2
14 14 13 12 8 9 9 11 8 6 6 7 6 6 5 4 5 5 4 4 4 4 4 3 2 2 2 1 1 2 3 3 3 3 2 1 2 2 2 2 2 2 2 2 3 3 2 3 3
15 14 13 12 10 9 9 10 8 6 6 6 6 5 5 5 5 4 5 4 4 4 3 2 2 2 2 2 3 3 4 4 4 3 2 2 1 0 1 2 2 2 2 3 3 3 3 3 3
11 11 12 10 8 9 10 10 8 7 7 7 6 6 6 6 5 5 4 4 2 3 3 2 2 2 2 2 4 4 4 4 4 3 2 2 1 0 2 2 2 2 3 3 2 3 3 3 3
12 13 13 11 9 9 10 10 8 7 7 7 7 6 7 7 6 5 5 3 3 3 3 3 3 2 2 3 3 4 4 4 4 3 3 2 1 1 2 2 2 2 3 3 3 3 4 3 3
13 13 13 13 10 10 11 12 11 9 8 7 7 6 6 6 6 6 5 4 4 4 3 3 3 3 3 3 3 4 4 3 4 3 2 2 2 2 2 2 2 2 2 3 3 3 2 3 3
14 10 11 11 12 15 11 16 12 10 9 8 8 7 6 5 5 6 5 5 4 4 3 3 3 3 3 4 4 4 5 5 4 3 3 2 1 1 1 1 2 2 2 3 3 2 3 4 4
13 10 10 11 13 13 13 15 13 11 11 10 8 7 6 6 6 6 5 4 4 3 3 3 4 4 4 4 3 4 4 4 4 3 3 3 2 2 1 2 2 2 2 2 2 3 3 3 4
11 11 11 11 13 17 14 14 15 12 11 10 8 7 6 6 7 6 4 4 4 3 3 3 4 4 3 3 3 4 4 4 3 4 3 3 3 3 2 1 2 2 2 2 2 3 3 3 3
13 16 18 19 18 18 13 14 14 11 9 9 8 7 7 7 6 6 5 5 4 4 3 4 3 4 3 3 3 3 3 3 3 4 3 4 3 3 3 2 3 2 2 2 2 2 2 2 3
15 15 18 21 20 17 13 16 14 9 8 7 7 8 7 9 6 6 5 5 4 4 3 3 3 4 3 3 3 3 3 3 3 3 3 3 3 3 2 3 2 2 2 2 2 2 2 2 2
13 16 14 17 14 17 15 13 11 9 9 8 8 8 8 6 6 6 5 4 4 4 3 3 3 3 3 3 3 3 3 3 3 3 3 3 3 2 2 1 2 2 2 1 2 2 2 2 2
11 11 16 17 19 20 17 15 14 12 10 10 10 10 8 7 6 6 5 5 4 3 3 3 3 3 3 3 3 3 3 3 3 3 3 3 3 2 2 2 2 2 2 2 2 3 2 2 2
12 13 14 15 16 18 19 17 12 11 11 11 9 9 8 7 6 6 5 4 4 3 3 3 3 3 3 3 3 3 3 2 2 3 2 2 3 2 2 2 2 2 2 2 3 3 2 2 2
10 12 12 17 18 16 16 16 10 10 11 10 9 7 7 6 6 5 5 4 4 4 3 3 3 3 4 3 2 3 2 3 3 3 3 2 2 2 2 2 2 1 1 2 2 2 1 2 2